Simultaneous Nadir Overpasses (SNOs) Predictions

Prediction of SNOs between AQUA and NPP Satellite Orbit:

Table of predicted SNOs for the next 14.0 days since TLE Epoch: 6/12/2020
Index Date (AQUA) Time (AQUA) Lat,Lon (AQUA) SZA (AQUA ) Date (NPP) Time (NPP) Lat,Lon (NPP) SZA (NPP ) Distance(km) Time Diff (sec)
1 06/14/2020 22:38:17 75.82, 78.96 74.63 06/14/2020 22:38:07 75.82, 78.90 74.66 1.80 10
2 06/14/2020 23:27:22 -76.93,-109.74 106.70 06/14/2020 23:28:28 -76.93,-109.71 106.76 0.92 66
3 06/17/2020 14:05:32 -75.22, 25.48 104.73 06/17/2020 14:04:29 -75.22, 25.51 104.69 0.93 63
4 06/17/2020 14:54:37 76.20,-163.98 74.13 06/17/2020 14:54:52 76.20,-164.02 74.12 1.15 15
5 06/20/2020 06:21:51 -75.70, 142.73 105.30 06/20/2020 06:21:13 -75.71, 142.79 105.28 1.74 38
6 06/20/2020 07:10:58 76.58, -46.87 73.68 06/20/2020 07:11:38 76.58, -46.87 73.64 0.10 40
7 06/22/2020 22:38:20 -75.69,-101.44 105.23 06/22/2020 22:38:08 -75.68,-101.54 105.20 2.83 12
8 06/22/2020 23:27:19 76.94, 70.30 73.28 06/22/2020 23:28:24 76.94, 70.35 73.21 1.35 65
9 06/25/2020 14:05:28 75.31,-154.27 75.30 06/25/2020 14:04:24 75.32,-154.19 75.33 2.22 64




NCC Satellite Simultaneous Nadir Overpasses (SNOs) Prediction Service
